Flag for Montenegro Weather past 2 weeks in Podgorica, Montenegro

Now
75 °F

Clear.


Feels Like: 77 °F
Forecast: 63 / 93 °F
Wind: 1 mph from North

Location: Podgorica Titograd

Current Time: Sep 2, 2015 at 3:28:15 AM

Latest Report: Sep 2, 2015 at 3:00 AM


Visibility: 10 mi

Pressure: 29.86 "Hg

Humidity: 61%

Dew point: 61 °F

Location of PodgoricaLocation

Historic Weather in Podgorica — Graph

°F

Podgorica temperature yesterday

Maximum temperature yesterday: 99 °F (at 2:30 PM)
Minimum temperature yesterday: 75 °F (at 5:30 AM)
Average temperature yesterday: 87 °F

Past Weeks' High & Low Weather Summary

 TemperatureHumidityPressure
High100 °F (Aug 29, 3:00 PM)94% (Aug 20, 4:00 AM)30.12 "Hg (Aug 20, 4:00 AM)
Low66 °F (Aug 18, 5:00 AM)17% (Aug 29, 5:00 PM)29.83 "Hg (Aug 18, 3:30 PM)
Average81 °F49%29.98 "Hg
* Reported Aug 18 2:00 AM — Sep 2 2:00 AM, Podgorica, Weather by CustomWeather, © 2015

Note: Actual official high and low records may vary slightly from our data, if they occured in-between our weather recording intervals... More about our weather records

Advertising

Podgorica weather history for previous 24 hours

 ConditionsComfort  
Time TempWeatherWind HumidityBarometerVisibility
2:00 AM
Wed, Sep 2
75 °FPassing clouds.3 mph65%29.86 "HgN/A
1:30 AM75 °FClear.5 mph69%29.86 "Hg10 mi
1:00 AM75 °FClear.5 mph74%29.86 "Hg10 mi
11:30 PM
Tue, Sep 1
79 °FPassing clouds.3 mph70%29.86 "HgN/A
11:00 PM79 °FClear.3 mph70%29.86 "Hg10 mi
10:30 PM81 °FClear.3 mph62%29.86 "Hg10 mi
10:00 PM81 °FPassing clouds.5 mph66%29.86 "HgN/A
9:30 PM81 °FClear.3 mph66%29.86 "Hg10 mi
9:00 PM82 °FClear.8 mph62%29.86 "Hg10 mi
8:30 PM84 °FClear.8 mph48%29.86 "Hg10 mi
8:00 PM84 °FSunny.6 mph48%29.83 "Hg10 mi
7:30 PM88 °FSunny.3 mph40%29.83 "Hg10 mi
7:00 PM90 °FPassing clouds.3 mph38%29.83 "HgN/A
6:30 PM95 °FPassing clouds.6 mph28%29.83 "HgN/A
6:00 PM95 °FSunny.9 mph28%29.83 "Hg10 mi
5:00 PM97 °FPassing clouds.9 mph27%29.83 "HgN/A
4:30 PM99 °FPassing clouds.8 mph25%29.83 "HgN/A
4:00 PM99 °FPassing clouds.8 mph17%29.86 "HgN/A
3:30 PM99 °FPassing clouds.6 mph19%29.86 "HgN/A
3:00 PM99 °FPassing clouds.5 mph19%29.86 "HgN/A
2:30 PM99 °FPassing clouds.5 mph25%29.86 "HgN/A
2:00 PM97 °FSunny.5 mph25%29.86 "Hg10 mi
1:30 PM97 °FSunny.3 mph27%29.89 "Hg10 mi
1:00 PM97 °FSunny.2 mph27%29.89 "Hg10 mi
12:30 PM95 °FPassing clouds.3 mph28%29.92 "HgN/A
12:00 PM93 °FSunny.No wind30%29.92 "Hg10 mi
11:30 AM91 °FSunny.3 mph32%29.92 "Hg10 mi
11:00 AM90 °FSunny.2 mph36%29.95 "Hg10 mi
10:30 AM90 °FSunny.3 mph36%29.95 "Hg10 mi
10:00 AM88 °FPassing clouds.5 mph35%29.95 "HgN/A
9:30 AM86 °FPassing clouds.3 mph38%29.95 "HgN/A
9:00 AM84 °FSunny.2 mph40%29.95 "Hg10 mi
8:30 AM82 °FSunny.1 mph42%29.95 "Hg10 mi
8:00 AM82 °FSunny.1 mph42%29.95 "Hg10 mi
7:30 AM79 °FSunny.2 mph51%29.95 "Hg10 mi
7:00 AM77 °FClear.No wind51%29.95 "Hg10 mi
5:30 AM75 °FClear.No wind54%29.95 "Hg10 mi
4:30 AM79 °FClear.2 mph48%29.95 "Hg10 mi
4:00 AM79 °FClear.1 mph48%29.95 "Hg10 mi
3:30 AM79 °FClear.2 mph48%29.95 "Hg10 mi
3:00 AM79 °FPassing clouds.3 mph48%29.95 "HgN/A
Weather by CustomWeather, © 2015

See weather overviewHow to use our weather pages